TimeCDT,TemperatureF,Dew PointF,Humidity,Sea Level PressureIn,VisibilityMPH,Wind Direction,Wind SpeedMPH,Gust SpeedMPH,PrecipitationIn,Events,Conditions,WindDirDegrees,DateUTC
12:53 AM,69.1,61.0,75,29.99,10.0,WNW,6.9,-,N/A,,Clear,290,2013-06-28 05:53:00
1:53 AM,68.0,59.0,73,29.99,10.0,WNW,6.9,-,N/A,,Clear,290,2013-06-28 06:53:00
2:53 AM,66.9,57.0,70,30.00,10.0,NW,8.1,-,N/A,,Clear,310,2013-06-28 07:53:00
3:53 AM,64.9,55.9,73,30.00,10.0,WNW,9.2,-,N/A,,Clear,290,2013-06-28 08:53:00
4:53 AM,64.9,55.0,70,30.00,10.0,WNW,9.2,-,N/A,,Clear,300,2013-06-28 09:53:00
5:53 AM,63.0,55.0,75,30.01,10.0,WNW,10.4,-,N/A,,Clear,290,2013-06-28 10:53:00
6:53 AM,64.0,55.9,75,30.02,10.0,WNW,9.2,-,N/A,,Clear,290,2013-06-28 11:53:00
7:53 AM,69.1,57.0,65,30.03,10.0,WNW,11.5,-,N/A,,Clear,300,2013-06-28 12:53:00
8:53 AM,73.9,57.9,57,30.02,10.0,WNW,11.5,-,N/A,,Clear,300,2013-06-28 13:53:00
9:53 AM,77.0,59.0,54,30.02,10.0,WNW,10.4,-,N/A,,Clear,290,2013-06-28 14:53:00
10:53 AM,81.0,55.0,41,30.01,10.0,NW,21.9,27.6,N/A,,Clear,320,2013-06-28 15:53:00
11:53 AM,82.9,55.9,39,30.01,10.0,NNW,20.7,26.5,N/A,,Clear,330,2013-06-28 16:53:00
12:53 PM,84.0,57.0,40,30.00,10.0,NNW,20.7,28.8,N/A,,Partly Cloudy,330,2013-06-28 17:53:00
1:53 PM,84.0,55.0,37,29.99,10.0,NNW,19.6,27.6,N/A,,Scattered Clouds,330,2013-06-28 18:53:00
2:53 PM,84.9,54.0,34,29.99,10.0,NNW,20.7,33.4,N/A,,Partly Cloudy,330,2013-06-28 19:53:00
3:53 PM,84.9,53.1,33,29.98,10.0,NNW,23.0,32.2,N/A,,Partly Cloudy,340,2013-06-28 20:53:00
4:53 PM,84.9,50.0,30,29.98,10.0,NNW,25.3,33.4,N/A,,Partly Cloudy,340,2013-06-28 21:53:00
5:53 PM,84.9,48.0,28,29.97,10.0,NNW,24.2,29.9,N/A,,Clear,330,2013-06-28 22:53:00
6:53 PM,82.9,48.0,29,29.96,10.0,NNW,17.3,27.6,N/A,,Clear,340,2013-06-28 23:53:00
7:53 PM,81.0,51.1,35,29.95,10.0,NNW,12.7,-,N/A,,Clear,340,2013-06-29 00:53:00
8:53 PM,78.1,52.0,40,29.95,10.0,NNW,10.4,-,N/A,,Clear,340,2013-06-29 01:53:00
9:53 PM,70.0,55.0,59,29.96,10.0,NW,8.1,-,N/A,,Clear,320,2013-06-29 02:53:00
10:53 PM,69.1,55.0,61,29.96,10.0,WNW,10.4,-,N/A,,Clear,300,2013-06-29 03:53:00
11:53 PM,66.0,55.9,70,29.95,10.0,NW,10.4,-,N/A,,Clear,310,2013-06-29 04:53:00